DW2099 Weather Reports


Display with metric or nautical units.
time (UTC)temp
F
wind
direction
speed
MPH
gust
MPH
rain 1hr
in
rain 24hr
in
rain mn
in
humidity
%
barometer
mb
20220122052017 30 0.0 0.0 0.00 0.00 0.00 73 1029.5
20220122051017 30 0.0 0.0 0.00 0.00 0.00 73 1029.4
20220122050018 31 0.0 0.0 0.00 0.00 0.00 72 1029.7
20220122045017 31 0.0 0.0 0.00 0.00 0.00 71 1029.6
20220122044017 31 0.0 0.0 0.00 0.00 0.00 72 1029.6
20220122043017 31 0.0 0.0 0.00 0.00 0.00 71 1029.3
20220122042017 31 0.0 0.0 0.00 0.00 0.00 71 1029.5
20220122041017 31 0.0 0.0 0.00 0.00 0.00 73 1029.4
20220122040017 31 0.0 0.0 0.00 0.00 0.00 69 1029.2
20220122035017 31 0.0 0.0 0.00 0.00 0.00 70 1029.2
20220122034023 31 0.0 0.0 0.00 0.00 0.00 70 1029.2
20220122033017 31 0.0 0.0 0.00 0.00 0.00 70 1029.1
20220122032017 31 0.0 0.0 0.00 0.00 0.00 69 1029.1
20220122031017 32 0.0 0.0 0.00 0.00 0.00 68 1029.2
20220122030017 32 0.0 0.0 0.00 0.00 0.00 66 1029.4
20220122025017 32 0.0 0.0 0.00 0.00 0.00 66 1029.2
20220122024016 32 0.0 0.0 0.00 0.00 0.00 64 1029.3
20220122023017 33 0.0 0.0 0.00 0.00 0.00 63 1029.3
20220122022016 34 0.0 0.0 0.00 0.00 0.00 62 1029.2
20220122021016 34 0.0 0.0 0.00 0.00 0.00 60 1029.2
20220122020017 35 0.0 0.0 0.00 0.00 0.00 60 1029.1
20220122015017 35 0.0 0.0 0.00 0.00 0.00 57 1029.0
20220122014016 36 0.0 0.0 0.00 0.00 0.00 56 1028.9
20220122013022 36 0.0 0.0 0.00 0.00 0.00 55 1028.8
20220122012018 37 0.0 0.0 0.00 0.00 0.00 54 1028.8
20220122011017 38 0.0 0.0 0.00 0.00 0.00 53 1028.7
20220122010016 38 0.0 0.0 0.00 0.00 0.00 51 1028.6
20220122005017 40 0.0 0.0 0.00 0.00 0.00 49 1028.4
20220122004017 40 0.0 0.0 0.00 0.00 0.00 46 1028.3
20220122003017 42 0.0 0.0 0.00 0.00 0.00 44 1028.1
20220122002016 43 0.0 0.0 0.00 0.00 0.00 42 1027.9
20220122001017 44 0.0 1.0 0.00 0.00 0.00 39 1027.9
20220122000017 45 0.0 0.0 0.00 0.00 0.00 38 1027.8
20220121235018 46 0.0 2.0 0.00 0.00 0.00 37 1027.7
20220121234017 47 180 1.0 3.0 0.00 0.00 0.00 36 1027.7
20220121233021 48 0.0 1.0 0.00 0.00 0.00 34 1027.7
20220121232016 49 225 1.0 4.0 0.00 0.00 0.00 32 1027.5
20220121231016 51 180 1.0 3.0 0.00 0.00 0.00 30 1027.6
20220121230017 51 203 2.0 5.0 0.00 0.00 0.00 30 1027.4
20220121225016 52 180 1.0 4.0 0.00 0.00 0.00 30 1027.4
20220121224016 52 180 1.0 6.0 0.00 0.00 0.00 29 1027.5
20220121223017 52 135 2.0 7.0 0.00 0.00 0.00 29 1027.6
20220121222016 52 158 3.0 8.0 0.00 0.00 0.00 29 1027.7
20220121221016 52 158 2.0 5.0 0.00 0.00 0.00 28 1027.7
20220121220016 53 113 2.0 5.0 0.00 0.00 0.00 28 1027.7
20220121215016 52 270 1.0 5.0 0.00 0.00 0.00 29 1027.7
20220121214016 52 158 2.0 7.0 0.00 0.00 0.00 28 1027.7
20220121213016 52 270 2.0 7.0 0.00 0.00 0.00 28 1027.7
20220121212016 51 270 3.0 9.0 0.00 0.00 0.00 28 1027.6
20220121211016 51 225 3.0 10.0 0.00 0.00 0.00 29 1027.6
20220121210021 52 135 3.0 7.0 0.00 0.00 0.00 27 1027.7
20220121205016 51 113 3.0 7.0 0.00 0.00 0.00 29 1027.8
20220121204016 50 90 2.0 6.0 0.00 0.00 0.00 27 1028.1
20220121203017 50 113 3.0 11.0 0.00 0.00 0.00 27 1028.3
20220121202016 50 135 4.0 9.0 0.00 0.00 0.00 29 1028.5
20220121201016 50 248 2.0 12.0 0.00 0.00 0.00 27 1028.6
20220121200016 50 158 3.0 8.0 0.00 0.00 0.00 28 1028.6
20220121195016 50 158 2.0 8.0 0.00 0.00 0.00 29 1028.8
20220121194016 49 203 2.0 6.0 0.00 0.00 0.00 30 1029.1
20220121193016 48 180 3.0 9.0 0.00 0.00 0.00 30 1029.2
20220121192016 49 225 2.0 8.0 0.00 0.00 0.00 30 1029.6
20220121191021 47 135 4.0 11.0 0.00 0.00 0.00 31 1029.8
20220121190016 47 158 3.0 7.0 0.00 0.00 0.00 32 1030.1
20220121185016 47 180 2.0 10.0 0.00 0.00 0.00 31 1030.2
20220121184016 46 158 4.0 8.0 0.00 0.00 0.00 32 1030.6
20220121183016 46 203 2.0 7.0 0.00 0.00 0.00 34 1030.8
20220121182021 45 135 3.0 7.0 0.00 0.00 0.00 34 1030.8
20220121181016 44 225 3.0 8.0 0.00 0.00 0.00 37 1030.9
20220121180016 44 225 3.0 12.0 0.00 0.00 0.00 33 1031.3
20220121175016 43 158 2.0 7.0 0.00 0.00 0.00 35 1031.5
20220121174016 42 225 3.0 10.0 0.00 0.00 0.00 36 1031.5
20220121173016 42 203 3.0 7.0 0.00 0.00 0.00 36 1031.7
20220121172016 42 248 2.0 7.0 0.00 0.00 0.00 36 1031.9
20220121171016 40 225 3.0 10.0 0.00 0.00 0.00 37 1032.1
20220121170016 40 225 3.0 6.0 0.00 0.00 0.00 39 1032.0
20220121165016 40 225 2.0 7.0 0.00 0.00 0.00 40 1032.1
20220121164021 39 203 2.0 10.0 0.00 0.00 0.00 40 1032.3
20220121163021 38 158 5.0 10.0 0.00 0.00 0.00 39 1032.3
20220121162016 38 203 3.0 7.0 0.00 0.00 0.00 40 1032.4
20220121161016 37 180 2.0 6.0 0.00 0.00 0.00 42 1032.5
20220121160015 36 225 3.0 9.0 0.00 0.00 0.00 43 1032.6
20220121155015 36 135 2.0 9.0 0.00 0.00 0.00 45 1032.5
20220121154016 34 203 3.0 10.0 0.00 0.00 0.00 44 1032.3
20220121153016 34 158 3.0 10.0 0.00 0.00 0.00 44 1032.4
20220121152015 33 158 2.0 7.0 0.00 0.00 0.00 46 1032.2
20220121151016 33 158 2.0 8.0 0.00 0.00 0.00 46 1032.2
20220121150016 32 113 1.0 8.0 0.00 0.00 0.00 47 1032.1
20220121145015 30 180 1.0 6.0 0.00 0.00 0.00 49 1031.7
20220121144020 29 158 1.0 3.0 0.00 0.00 0.00 51 1031.6
20220121143020 29 158 1.0 5.0 0.00 0.00 0.00 52 1031.6
20220121142016 28 158 2.0 6.0 0.00 0.00 0.00 52 1031.5
20220121141015 27 158 1.0 5.0 0.00 0.00 0.00 54 1031.6
20220121140015 27 135 1.0 4.0 0.00 0.00 0.00 55 1031.5
20220121135016 27 158 1.0 6.0 0.00 0.00 0.00 54 1031.4
20220121134016 27 113 1.0 5.0 0.00 0.00 0.00 55 1031.6
20220121133015 27 158 1.0 2.0 0.00 0.00 0.00 54 1031.5
20220121132015 27 0.0 2.0 0.00 0.00 0.00 54 1031.3
20220121131015 27 158 1.0 6.0 0.00 0.00 0.00 54 1031.3
20220121130016 28 0.0 5.0 0.00 0.00 0.00 53 1031.0
20220121125020 28 135 1.0 5.0 0.00 0.00 0.00 53 1031.1
20220121124015 28 113 1.0 7.0 0.00 0.00 0.00 53 1030.8
20220121123015 28 113 2.0 8.0 0.00 0.00 0.00 52 1030.7
20220121122016 29 180 2.0 6.0 0.00 0.00 0.00 51 1030.5
20220121121015 29 158 3.0 10.0 0.00 0.00 0.00 51 1030.2
20220121120015 29 180 3.0 6.0 0.00 0.00 0.00 50 1030.1
20220121115016 29 203 2.0 12.0 0.00 0.00 0.00 51 1030.1
20220121114015 29 135 3.0 10.0 0.00 0.00 0.00 50 1030.0
20220121113015 29 158 3.0 12.0 0.00 0.00 0.00 50 1029.9
20220121112015 29 158 5.0 16.0 0.00 0.00 0.00 49 1030.0
20220121111015 29 135 3.0 13.0 0.00 0.00 0.00 49 1030.0
20220121110015 29 180 3.0 11.0 0.00 0.00 0.00 50 1030.0
20220121105015 29 180 3.0 10.0 0.00 0.00 0.00 49 1030.0
20220121104020 29 158 4.0 10.0 0.00 0.00 0.00 49 1030.0
20220121103015 29 180 3.0 11.0 0.00 0.00 0.00 49 1030.2
20220121102015 29 180 2.0 6.0 0.00 0.00 0.00 50 1030.5
20220121101015 30 113 3.0 10.0 0.00 0.00 0.00 49 1030.3
20220121100015 30 135 3.0 10.0 0.00 0.00 0.00 50 1030.4
20220121095015 30 113 2.0 7.0 0.00 0.00 0.00 50 1030.3
20220121094017 30 135 4.0 14.0 0.00 0.00 0.00 49 1030.3
20220121093017 30 158 3.0 10.0 0.00 0.00 0.00 48 1030.3
20220121092017 31 180 4.0 12.0 0.00 0.00 0.00 48 1030.3
20220121091017 31 180 2.0 8.0 0.00 0.00 0.00 48 1030.2
20220121090017 31 135 2.0 9.0 0.00 0.00 0.00 46 1029.8
20220121085017 32 180 3.0 11.0 0.00 0.00 0.00 46 1029.9
20220121084017 32 225 1.0 5.0 0.00 0.00 0.00 47 1030.1
20220121083017 32 203 2.0 5.0 0.00 0.00 0.00 47 1030.2
20220121082017 32 180 1.0 4.0 0.00 0.00 0.00 47 1030.3
20220121081017 33 158 1.0 4.0 0.00 0.00 0.00 48 1030.4
20220121080017 33 158 2.0 6.0 0.00 0.00 0.00 46 1030.4
20220121075017 33 158 3.0 10.0 0.00 0.00 0.00 45 1030.1
20220121074017 33 113 2.0 8.0 0.00 0.00 0.00 45 1030.1
20220121073017 34 180 3.0 9.0 0.00 0.00 0.00 44 1030.2
20220121072017 34 158 3.0 12.0 0.00 0.00 0.00 45 1030.4
20220121071022 34 158 3.0 8.0 0.00 0.00 0.00 45 1030.3
20220121070017 34 203 2.0 6.0 0.00 0.00 0.00 45 1030.5
20220121065017 34 203 3.0 10.0 0.00 0.00 0.00 43 1030.7
20220121064017 35 158 5.0 10.0 0.00 0.00 0.00 44 1030.8
20220121063017 35 180 3.0 9.0 0.00 0.00 0.00 46 1031.0
20220121062017 35 135 4.0 9.0 0.00 0.00 0.00 44 1031.3
20220121061017 35 180 3.0 10.0 0.00 0.00 0.00 45 1031.2
20220121060017 35 135 4.0 10.0 0.00 0.00 0.00 45 1031.3
20220121055017 35 135 5.0 12.0 0.00 0.00 0.00 44 1031.2
20220121054022 35 203 2.0 9.0 0.00 0.00 0.00 46 1031.4
20220121053017 35 180 3.0 8.0 0.00 0.00 0.00 47 1031.2